Natchez, MS

10:16 PM CDT on September 16, 2019 (GMT -0500)
Hardy-Anders-Adams County

Weather History for KHEZ - August, 2019

Change the Weather History Date:

Wednesday, August 21, 2019

  Actual Average Record
Temperature  
Mean Temperature 82 °F -  
Max Temperature 90 °F 91 °F 99 °F (1948)
Min Temperature 73 °F 71 °F 58 °F (1940)
Cooling Degree Days 16    
Growing Degree Days 32 (Base 50)    
Moisture  
Dew Point 74 °F    
Average Humidity 87    
Maximum Humidity 100    
Minimum Humidity 57    
Precipitation  
Precipitation 0.41 in - - ()
Sea Level Pressure  
Sea Level Pressure 30.03 in    
Wind  
Wind Speed 5 mph (South)    
Max Wind Speed 17 mph    
Max Gust Speed 24 mph    
Visibility 8 miles    
Events Fog , Rain    
Averages and records for this station are not official NWS values.
T = Trace of Precipitation, MM = Missing Value Source: NWS Daily Summary

Daily Weather History Graph

Daily Weather History Graph

Search for Another Location

Airport or City:

Astronomy

Aug. 21, 2019 Rise Set
Actual Time 6:34 AM CDT 7:42 PM CDT
Civil Twilight 6:08 AM CDT 8:07 PM CDT
Nautical Twilight 5:38 AM CDT 8:37 PM CDT
Astronomical Twilight 5:07 AM CDT 9:08 PM CDT
Moon 11:21 PM CDT (8/21) 11:50 AM CDT (8/21)
Length of Visible Light 13h 58m
Length of Day
13h 08m
Waning Gibbous, 69% of the Moon is Illuminated
Aug 21
Waning Gibbous
Aug 23
Last Quarter
Aug 30
New
Sep 5
First Quarter
Sep 13
Full

Hourly Weather History & Observations

Time (CDT) Temp. Heat Index Dew Point Humidity Pressure Visibility Wind Dir Wind Speed Gust Speed Precip Events Conditions
12:56 AM 75.9 °F - 73.9 °F 94% 30.06 in 10.0 mi SSE 4.6 mph - N/A   Clear
1:56 AM 75.9 °F - 73.0 °F 91% 30.04 in 10.0 mi SSE 4.6 mph - N/A   Clear
2:56 AM 75.0 °F - 73.0 °F 94% 30.02 in 10.0 mi South 4.6 mph - N/A   Clear
3:56 AM 75.0 °F - 73.0 °F 94% 30.01 in 10.0 mi South 3.5 mph - N/A   Clear
4:56 AM 73.9 °F - 72.0 °F 93% 30.02 in 10.0 mi Calm Calm - N/A   Clear
5:56 AM 73.9 °F - 73.0 °F 97% 30.03 in 10.0 mi Calm Calm - N/A   Partly Cloudy
6:18 AM 73.4 °F - 71.6 °F 94% 30.03 in 10.0 mi Calm Calm - N/A   Mostly Cloudy
6:40 AM 75.2 °F - 73.4 °F 94% 30.03 in 2.5 mi SSW 4.6 mph - N/A   Overcast
6:49 AM 75.2 °F - 73.4 °F 94% 30.03 in 0.5 mi Calm Calm - N/A Fog Fog
6:56 AM 75.0 °F - 73.9 °F 96% 30.03 in 0.2 mi SSW 3.5 mph - N/A Fog Fog
7:35 AM 75.2 °F - 73.4 °F 94% 30.05 in 0.8 mi Calm Calm - N/A   Overcast
7:41 AM 75.2 °F - 75.2 °F 100% - 1.2 mi Calm Calm - N/A   Overcast
7:50 AM 75.2 °F - 75.2 °F 100% 30.05 in 4.0 mi Calm Calm - N/A   Mostly Cloudy
7:56 AM 77.0 °F - 75.0 °F 94% 30.05 in 7.0 mi SSW 3.5 mph - N/A   Mostly Cloudy
8:12 AM 78.8 °F - 75.2 °F 89% 30.06 in 9.0 mi SW 3.5 mph - N/A   Scattered Clouds
8:56 AM 82.0 °F 89.4 °F 75.9 °F 82% 30.06 in 10.0 mi West 5.8 mph - N/A   Partly Cloudy
9:56 AM 84.0 °F 92.6 °F 75.9 °F 76% 30.09 in 10.0 mi West 3.5 mph - N/A   Scattered Clouds
10:19 AM 84.2 °F 92.3 °F 75.2 °F 74% 30.09 in 10.0 mi NW 4.6 mph - N/A   Mostly Cloudy
10:56 AM 84.9 °F 93.3 °F 75.0 °F 72% 30.09 in 10.0 mi Variable 4.6 mph - N/A   Mostly Cloudy
11:06 AM 84.2 °F 92.3 °F 75.2 °F 74% 30.10 in 10.0 mi NNW 4.6 mph - N/A   Overcast
11:56 AM 88.0 °F 98.5 °F 75.9 °F 67% 30.08 in 10.0 mi Variable 5.8 mph - N/A   Partly Cloudy
12:56 PM 89.1 °F 98.0 °F 73.9 °F 61% 30.05 in 10.0 mi North 5.8 mph - N/A   Mostly Cloudy
1:56 PM 90.0 °F 97.9 °F 73.0 °F 57% 30.02 in 10.0 mi NNW 6.9 mph - N/A   Scattered Clouds
2:56 PM 90.0 °F 99.0 °F 73.9 °F 59% 30.00 in 8.0 mi Variable 4.6 mph - N/A   Mostly Cloudy
3:56 PM 86.0 °F 93.0 °F 73.0 °F 65% 30.00 in 10.0 mi ESE 13.8 mph 24.2 mph N/A   Mostly Cloudy
4:10 PM 82.4 °F 88.2 °F 73.4 °F 74% 30.02 in 10.0 mi ENE 11.5 mph 18.4 mph N/A   Mostly Cloudy
4:25 PM 78.8 °F - 73.4 °F 83% 30.02 in 1.8 mi ESE 17.3 mph - 0.16 in Rain Heavy Rain
4:35 PM 75.2 °F - 73.4 °F 94% 30.02 in 2.5 mi ESE 17.3 mph - 0.29 in Rain Heavy Rain
4:43 PM 75.2 °F - 73.4 °F 94% 30.02 in 5.0 mi SSE 13.8 mph - 0.32 in Rain Light Rain
4:56 PM 75.9 °F - 73.9 °F 94% 30.00 in 6.0 mi SE 16.1 mph - 0.39 in Rain Rain
5:56 PM 77.0 °F - 75.0 °F 94% 30.01 in 10.0 mi SSE 10.4 mph - 0.02 in   Clear
6:56 PM 75.9 °F - 73.0 °F 91% 30.00 in 10.0 mi SW 3.5 mph - N/A   Clear
7:56 PM 75.0 °F - 73.0 °F 94% 29.99 in 10.0 mi SSE 5.8 mph - N/A   Clear
8:56 PM 73.9 °F - 72.0 °F 93% 30.01 in 10.0 mi South 3.5 mph - N/A   Clear
9:56 PM 73.9 °F - 72.0 °F 93% 30.03 in 10.0 mi South 4.6 mph - N/A   Clear
10:56 PM 73.0 °F - 72.0 °F 96% 30.03 in 10.0 mi Calm Calm - N/A   Clear
11:56 PM 73.0 °F - 72.0 °F 96% 30.02 in 10.0 mi SSE 3.5 mph - N/A   Clear